Time,TemperatureF,DewpointF,PressureIn,WindDirection,WindDirectionDegrees,WindSpeedMPH,WindSpeedGustMPH,Humidity,HourlyPrecipIn,Conditions,Clouds,dailyrainin,SoftwareType,DateUTC
2013-01-26 00:02:00,29.0,25.0,-100.00,West,280,0.0,1.0,84,-99.99,,,-99.99,,2013-01-26 08:02:00,
2013-01-26 00:10:00,29.0,25.0,-100.00,SSE,150,0.0,2.0,84,-99.99,,,-99.99,,2013-01-26 08:10:00,
2013-01-26 01:02:00,29.0,25.0,-100.00,SSE,150,0.0,2.0,84,-99.99,,,-99.99,,2013-01-26 09:02:00,
2013-01-26 02:01:00,29.0,25.0,-100.00,South,185,0.0,1.0,84,-99.99,,,-99.99,,2013-01-26 10:01:00,
2013-01-26 02:10:00,29.0,25.0,-100.00,WNW,285,0.0,1.0,84,-99.99,,,-99.99,,2013-01-26 10:10:00,
2013-01-26 02:11:00,29.0,25.0,-100.00,South,185,0.0,1.0,84,-99.99,,,-99.99,,2013-01-26 10:11:00,
2013-01-26 03:01:00,29.0,25.0,-100.00,WNW,285,0.0,1.0,84,-99.99,,,-99.99,,2013-01-26 11:01:00,
2013-01-26 04:02:00,29.0,25.0,-100.00,NW,325,0.0,2.0,84,-99.99,,,-99.99,,2013-01-26 12:02:00,
2013-01-26 04:12:00,29.0,25.0,-100.00,NW,325,0.0,2.0,84,-99.99,,,-99.99,,2013-01-26 12:12:00,
2013-01-26 05:03:00,29.0,26.0,-100.00,NNW,345,1.0,1.0,88,-99.99,,,-99.99,,2013-01-26 13:03:00,
2013-01-26 05:10:00,29.0,26.0,-100.00,WNW,300,1.0,2.0,88,-99.99,,,-99.99,,2013-01-26 13:10:00,
2013-01-26 06:02:00,29.0,26.0,-100.00,WNW,300,1.0,2.0,88,-99.99,,,-99.99,,2013-01-26 14:02:00,
2013-01-26 07:02:00,29.0,26.0,-100.00,SSE,165,2.0,2.0,88,-99.99,,,-99.99,,2013-01-26 15:02:00,
2013-01-26 07:10:00,29.0,26.0,-100.00,SE,130,1.0,2.0,88,-99.99,,,-99.99,,2013-01-26 15:10:00,
2013-01-26 07:12:00,29.0,26.0,-100.00,SSE,165,2.0,2.0,88,-99.99,,,-99.99,,2013-01-26 15:12:00,
2013-01-26 08:02:00,29.0,26.0,-100.00,SE,130,1.0,2.0,88,-99.99,,,-99.99,,2013-01-26 16:02:00,
2013-01-26 09:03:00,29.0,26.0,-100.00,SSE,155,1.0,2.0,88,-99.99,,,-99.99,,2013-01-26 17:03:00,
2013-01-26 09:12:00,29.0,26.0,-100.00,SSE,155,1.0,2.0,88,-99.99,,,-99.99,,2013-01-26 17:12:00,
2013-01-26 09:20:00,30.0,28.0,-100.00,SE,140,0.0,1.0,92,-99.99,,,-99.99,,2013-01-26 17:20:00,
2013-01-26 10:02:00,30.0,28.0,-100.00,SE,140,0.0,1.0,92,-99.99,,,-99.99,,2013-01-26 18:02:00,
2013-01-26 10:10:00,31.0,27.0,-100.00,SE,140,2.0,3.0,84,-99.99,,,-99.99,,2013-01-26 18:10:00,
2013-01-26 10:12:00,30.0,28.0,-100.00,SE,140,0.0,1.0,92,-99.99,,,-99.99,,2013-01-26 18:12:00,
2013-01-26 11:03:00,31.0,27.0,-100.00,SE,140,2.0,3.0,84,-99.99,,,-99.99,,2013-01-26 19:03:00,
2013-01-26 12:02:00,32.0,26.0,-100.00,ENE,60,1.0,1.0,78,-99.99,,,-99.99,,2013-01-26 20:02:00,
2013-01-26 12:11:00,32.0,26.0,-100.00,ENE,60,1.0,1.0,78,-99.99,,,-99.99,,2013-01-26 20:11:00,
2013-01-26 13:02:00,33.0,26.0,-100.00,ESE,105,1.0,5.0,75,-99.99,,,-99.99,,2013-01-26 21:02:00,
2013-01-26 13:10:00,33.0,26.0,-100.00,SE,130,2.0,3.0,75,-99.99,,,-99.99,,2013-01-26 21:10:00,
2013-01-26 14:01:00,33.0,26.0,-100.00,SE,130,2.0,3.0,75,-99.99,,,-99.99,,2013-01-26 22:01:00,
2013-01-26 15:01:00,32.0,25.0,-100.00,East,80,1.0,2.0,75,-99.99,,,-99.99,,2013-01-26 23:01:00,
2013-01-26 15:10:00,32.0,24.0,-100.00,SE,140,3.0,5.0,72,-99.99,,,-99.99,,2013-01-26 23:10:00,
2013-01-26 15:11:00,32.0,25.0,-100.00,East,80,1.0,2.0,75,-99.99,,,-99.99,,2013-01-26 23:11:00,
2013-01-26 16:02:00,32.0,24.0,-100.00,SE,140,3.0,5.0,72,-99.99,,,-99.99,,2013-01-27 00:02:00,
2013-01-26 17:01:00,31.0,24.0,-100.00,ESE,120,1.0,6.0,74,-99.99,,,-99.99,,2013-01-27 01:01:00,
2013-01-26 17:11:00,31.0,24.0,-100.00,ESE,120,1.0,6.0,74,-99.99,,,-99.99,,2013-01-27 01:11:00,
2013-01-26 18:01:00,31.0,24.0,-100.00,ESE,115,2.0,3.0,74,-99.99,,,-99.99,,2013-01-27 02:01:00,
2013-01-26 18:10:00,31.0,24.0,-100.00,West,270,0.0,1.0,74,-99.99,,,-99.99,,2013-01-27 02:10:00,
2013-01-26 19:02:00,31.0,24.0,-100.00,West,270,0.0,1.0,74,-99.99,,,-99.99,,2013-01-27 03:02:00,
2013-01-26 20:01:00,31.0,25.0,-100.00,SW,235,0.0,1.0,78,-99.99,,,-99.99,,2013-01-27 04:01:00,
2013-01-26 20:10:00,30.0,24.0,-100.00,WSW,250,1.0,1.0,78,-99.99,,,-99.99,,2013-01-27 04:10:00,
2013-01-26 20:11:00,31.0,25.0,-100.00,SW,235,0.0,1.0,78,-99.99,,,-99.99,,2013-01-27 04:11:00,
2013-01-26 21:03:00,30.0,24.0,-100.00,WSW,250,1.0,1.0,78,-99.99,,,-99.99,,2013-01-27 05:03:00,
2013-01-26 22:01:00,30.0,25.0,-100.00,SW,230,0.0,1.0,81,-99.99,,,-99.99,,2013-01-27 06:01:00,
2013-01-26 22:11:00,30.0,25.0,-100.00,SW,230,0.0,1.0,81,-99.99,,,-99.99,,2013-01-27 06:11:00,
2013-01-26 22:20:00,30.0,25.0,-100.00,West,275,0.0,1.0,81,-99.99,,,-99.99,,2013-01-27 06:20:00,
2013-01-26 23:01:00,30.0,25.0,-100.00,West,275,0.0,1.0,81,-99.99,,,-99.99,,2013-01-27 07:01:00,
2013-01-26 23:10:00,30.0,25.0,-100.00,West,260,0.0,1.0,81,-99.99,,,-99.99,,2013-01-27 07:10:00,
2013-01-26 23:13:00,30.0,25.0,-100.00,West,275,0.0,1.0,81,-99.99,,,-99.99,,2013-01-27 07:13:00,